Showing default

HAWK-2A, 47505

Orbit data source: Space-Track

HAWK-2A, 47505 is a payload satellite owned by HawkEye 360 (US) in SSO that was launched on Sun, 24 Jan 2021 UTC via an FALCON 9 launch vehicle from the Air Force Eastern Test Range (AFETR). Payload-class satellites include a variety of spacecraft equipped with specific instruments for various scientific and technological missions. These include communications satellites like Starlink; space stations such as the ISS; scientific satellites like the Hubble; Earth observation satellites from companies like Planet Labs, Umbra, and HawkEye 360; GPS; miniature CubeSats for education and research; and military/defense satellites.

Loading next visibility...
Identifier
47505, 2021-006CW
Orbit
SSO
Country
Flag of USUS
Related business
Manufacturer
UTIAS-SFL
Mission
Operational Commercial Sigint
Bus & Motor
DEFIANT, Unknown motor
Mass
31 kg wet, 30 kg dry
Launch date (UTC)
2021-01-24 (5 years ago)
Launch vehicle
FALCON 9
Launch site
Air Force Eastern Test Range (AFETR)
Object type
Payload
Rocket body
Debris
Shape & HBR
Box + 2 Pan, 1.0 m
Radar Cross Section
0.348 m², Medium (>0.1 m² and < 1m²)

Expand to show TLE details & history
Last TLE update: 11 hours ago

TLE from 11 hours ago
0 HAWK-2A
1 47505U 21006CW  25353.10727694  .00006052  00000-0  19957-3 0  9991
2 47505  97.2598  36.6506 0008270 122.8571 237.3468 15.31772338271904
Epoch: 2025-12-19T02:34Z
TLE epoch observation values (Epoch: 2025-12-19T02:34:28.727Z)
Latitude
-0.00004°
Longitude
-89.92227°
Altitude
476.695 km
Speed
7.626 km/s
True Right ascension
02h 26m 36s
True Declination
0° 00' 00"
Sunlit
Object was in full shadow at epoch
Visualization orbit readout
Latitude
Unknown
Longitude
Unknown
Altitude
Unknown
Speed
Unknown
Apparent Right ascension
Unknown
Apparent Declination
Unknown
Sunlit
N/A
Visualization observer readout
Local Sidereal Time
12:55:01
Azimuth
Unknown
Elevation
Unknown
Doppler factor
Unknown
Orbital elements
Apogee altitude
473.13 km
Perigee altitude
461.807 km
Semi-major axis
6,845.605 km
Eccentricity
0.00083
Inclination
97.2598°
RAAN
36.6506°
Arg. of periapsis
122.8571°
True anomaly
237.26706°
Mean anomaly
237.3468°
Eccentric anomaly
237.30692°
Mean motion
3.832 °/min
Orbital period
93.95 mins
BSTAR
0.00019957
Loading maneuver chart data...
Computing Atmospheric mass density...

Documentation

Showing up to 5 results
|